WESTFORD NEEDLES, 2375

Orbit data source: Space-Track

WESTFORD NEEDLES, 2375 is space debris in LEO originally from a launch on Thu, 09 May 1963 UTC launched from the Air Force Western Test Range (AFWTR). Debris objects in space refer to the collection of defunct objects orbiting the Earth. Examples of debris include non-operational satellites, rocket bodies, and fragments generated from explosions, collisions, or faulty payload assembly.

Loading next visibility...
Identifier
2375, 1963-014W
Orbit
LEO
Country
Flag of USUS
Related business
Manufacturer
Unknown
Mission
Spacecraft
Bus & Motor
Unknown
Mass
Unknown
Launch date (UTC)
1963-05-09 (62 years ago)
Launch vehicle
Unknown
Launch site
Air Force Western Test Range (AFWTR)
Object type
Payload
Rocket body
Debris
Shape & HBR
Unknown
Radar Cross Section
Medium (>0.1 m² and <1 m²)

Expand to show TLE details & history
Last TLE update: 3 days ago

TLE from 3 days ago
0 WESTFORD NEEDLES
1 02375U 63014W   25256.22168499  .00000093  00000-0  90454-2 0  9998
2 02375  86.4897  89.7857 1643865 121.4018 255.8138  8.74891957347201
Epoch: 2025-09-13T05:19Z
TLE epoch observation values (Epoch: 2025-09-13T05:19:13.583Z)
Latitude
0.00003°
Longitude
17.52095°
Altitude
4,208.449 km
Speed
5.937 km/s
True Right ascension
05h 59m 08s
True Declination
0° 00' 00"
Sunlit
Object was in daylight at epoch
Visualization orbit readout
Latitude
Unknown
Longitude
Unknown
Altitude
Unknown
Speed
Unknown
Apparent Right ascension
Unknown
Apparent Declination
Unknown
Sunlit
N/A
Visualization observer readout
Local Sidereal Time
00:08:02
Azimuth
Unknown
Elevation
Unknown
Doppler factor
Unknown
Orbital elements
Apogee altitude
5,203.327 km
Perigee altitude
1,933.216 km
Semi-major axis
9,946.408 km
Eccentricity
0.16439
Inclination
86.4897°
RAAN
89.7857°
Arg. of periapsis
121.4018°
True anomaly
238.68478°
Mean anomaly
255.8138°
Eccentric anomaly
247.13522°
Mean motion
2.18798 °/min
Orbital period
164.54 mins
BSTAR
0.0090454
Loading maneuver chart data...
Computing Atmospheric mass density...

Documentation

Showing up to 5 results
|